Date,TemperatureHighF,TemperatureAvgF,TemperatureLowF,DewpointHighF,DewpointAvgF,DewpointLowF,HumidityHigh,HumidityAvg,HumidityLow,PressureMaxIn,PressureMinIn,WindSpeedMaxMPH,WindSpeedAvgMPH,GustSpeedMaxMPH,PrecipitationSumIn
2013-6-1,53.0,41.9,29.0,34.0,30.8,-99.9,93,70,44,0.00,40.00,9,6,25,0.07
2013-6-2,64.0,48.8,27.0,43.0,36.2,25.0,96,66,38,0.00,40.00,9,5,18,0.00
2013-6-3,62.0,53.2,42.0,45.0,31.3,-99.9,69,49,33,0.00,40.00,11,5,22,0.00
2013-6-4,50.0,42.8,34.0,32.0,29.7,26.0,88,60,46,0.00,40.00,9,7,22,0.00
2013-6-5,53.0,40.5,30.0,37.0,32.6,28.0,93,75,49,0.00,40.00,6,4,15,0.00
2013-6-6,64.0,46.0,26.0,40.0,31.8,24.0,94,64,28,0.00,40.00,6,3,15,0.00
2013-6-7,70.0,52.1,33.0,47.0,37.3,31.0,97,65,27,0.00,40.00,7,3,20,0.47
2013-6-8,58.0,50.4,39.0,46.0,40.0,34.0,98,71,42,0.00,40.00,11,5,28,0.92
2013-6-9,70.0,55.8,35.0,44.0,37.2,33.0,94,55,28,0.00,40.00,7,3,14,0.02
2013-6-10,79.0,65.1,45.0,55.0,45.8,40.0,84,54,26,0.00,40.00,7,4,15,0.00
2013-6-11,69.0,58.9,47.0,57.0,52.4,44.0,98,81,61,0.00,40.00,7,4,17,0.34
2013-6-12,66.0,54.7,46.0,54.0,47.1,41.0,96,77,48,0.00,40.00,6,4,15,0.34
2013-6-13,70.0,55.6,45.0,52.0,43.9,36.0,84,66,43,0.00,40.00,10,6,22,0.02
2013-6-14,70.0,61.5,50.0,51.0,42.3,34.0,84,53,27,0.00,40.00,7,5,20,0.02
2013-6-15,65.0,54.8,44.0,44.0,39.6,34.0,86,60,31,0.00,40.00,6,3,12,0.00
2013-6-16,72.0,58.1,45.0,54.0,46.8,39.0,97,69,30,0.00,40.00,6,3,13,0.00
2013-6-17,68.0,54.2,45.0,51.0,45.2,40.0,93,74,41,0.00,40.00,6,2,14,0.07
2013-6-18,73.0,56.9,37.0,50.0,44.7,36.0,97,68,38,0.00,40.00,7,4,15,0.01
2013-6-19,71.0,62.2,51.0,58.0,49.2,40.0,80,63,46,0.00,40.00,10,7,25,0.00
2013-6-20,76.0,62.6,52.0,54.0,43.9,22.0,96,59,13,0.00,40.00,7,4,20,0.00
2013-6-22,67.0,55.9,43.0,53.0,47.3,41.0,96,75,48,0.00,40.00,8,4,22,0.39
2013-6-23,65.0,52.5,36.0,44.0,38.2,35.0,96,63,35,0.00,40.00,7,3,16,0.13
2013-6-24,81.0,64.8,50.0,53.0,42.6,34.0,84,50,19,0.00,40.00,7,4,19,0.00
2013-6-25,70.0,62.8,48.0,49.0,43.1,35.0,86,50,36,0.00,40.00,7,4,16,0.00
2013-6-26,79.0,64.4,45.0,51.0,45.2,41.0,93,54,26,0.00,40.00,6,3,14,0.00
2013-6-27,76.0,62.8,45.0,54.0,48.0,44.0,95,63,33,0.00,40.00,6,3,17,0.00
2013-6-28,77.0,62.4,41.0,48.0,44.0,39.0,94,56,31,0.00,40.00,6,3,15,0.00
2013-6-29,74.0,59.1,43.0,50.0,43.8,39.0,96,62,30,0.00,40.00,5,3,15,0.00
2013-6-30,71.0,55.8,40.0,50.0,43.4,37.0,94,67,38,0.00,40.00,4,2,11,0.00